Voltar ao catálogo

CTS DEB

ARRAY COVER

AtivoMEO
NORAD 39689·DEBRIS·🇨🇦 Canada

Lançado Jan 17, 1976 de Cape Canaveral Space Force Station

Loading…

Próximas Passagens (próximas 24 horas)

TLE

AtualizadoSource: Space-Track

Época: Sep 14, 2026, 00:22 UTC

1 39689U 76004F   26257.01582400 -.00000239  00000-0  00000-0 0  9999
2 39689   3.0408 265.2390 0113553  66.5800 294.1705  1.00231755 67782

Acompanhe CTS DEB em tempo real com AllMySat

Download on the App Store